Regional Weather Roundup
Issued by NWS

Home | Current Version | Previous Version | Text Only | Print | Product List | Glossary On
Versions: 1 2 3 4 5 6 7 8 9 10 11 12 13 14 15 16 17 18 19 20 21 22 23 24 25 26 27 28 29 30 31 32 33 34 35 36 37 38 39 40 41 42 43 44 45 46 47 48 49 50
000
ASHW40 PHFO 270043
RWRHI

WEATHER ROUNDUP FOR HAWAII
NATIONAL WEATHER SERVICE HONOLULU HI
200 PM HST THU FEB 26 2015

THIS IS AN AUTOMATED REPORT THAT HAS NOT BEEN QUALITY CONTROLLED.

NOTE..."FAIR" INDICATES FEW OR NO CLOUDS BELOW 12,000 FEET WITH NO
SIGNIFICANT WEATHER AND/OR OBSTRUCTIONS TO VISIBILITY.

* - THESE SITES REPORT LIMITED FIELDS

HIZ001>004-270100-
KAUAI-NIIHAU-

CITY           SKY/WX    TMP DP  RH WIND       PRES   REMARKS
LIHUE APT      MOSUNNY   80  68  66 NE14      29.95F
PORT ALLEN*      N/A     84 N/A N/A W12G17      N/A
POIPU*         NOT AVBL
PRINCEVILLE*     N/A     75 N/A N/A MISG        N/A
KOKOLE POINT*  NOT AVBL
MOLOAA DAIRY*  NOT AVBL
WAIMEA HTS*      N/A     88  59  37 SW8G14      N/A
PUU OPAE*        N/A     72  57  60 W3G14       N/A
PUU LUA*       NOT AVBL
MAKAHA RIDGE*  NOT AVBL
$$

HIZ005>011-270100-
OAHU-

CITY           SKY/WX    TMP DP  RH WIND       PRES   REMARKS
HONOLULU       MOSUNNY   81  68  64 S9        29.91F
KALAELOA       SUNNY     80  67  64 S8        29.92F
KANEOHE MCB    PTSUNNY   78  70  76 E5        29.88F
WHEELER FIELD  PTSUNNY   79  67  67 VRB5      29.92F
BELLOWS*         N/A    N/A N/A N/A NE5         N/A
KAHUKU*          N/A    N/A N/A N/A E5G10       N/A
WHEELER*       NOT AVBL
WAIANAE HARBOR NOT AVBL
DILLINGHAM*      N/A     88  72  58 MISG        N/A  HX  94
KAHUKU TRN*      N/A     68  59  73 E5G12       N/A
KAWAILOA*        N/A     79  70  73 SW1G7       N/A
KII*             N/A     75  70  83 E6G12       N/A
MAKUA RANGE*     N/A     81  70  69 W6          N/A
OAHU FOREST NW   N/A    N/A N/A N/A CALM        N/A
SCHOFIELD BRK*   N/A     61  50  67 CALM        N/A
SCHOFIELD S*   NOT AVBL
WAIANAE VLY*     N/A     82  68  61 S8G17       N/A
KUAOKALA*        N/A     77  68  73 CALM        N/A
HONOULIUULI*   NOT AVBL
MOKUOLOE IS*   NOT AVBL
PALEHUA*         N/A     91  70  49 CALM        N/A  HX  97
WAIAWA PHB*    NOT AVBL
$$

HIZ012>013-270100-
MOLOKAI-

CITY           SKY/WX    TMP DP  RH WIND       PRES   REMARKS
MOLOKAI AIRPT  MOSUNNY   81  64  56 S10       29.93F
KALAUPAPA      NOT AVBL
MAKAPULAPAI*     N/A     81  66  61 E6          N/A
MOLOKAI 1*       N/A     79  68  69 VRB3G10     N/A
PUU ALII*        N/A     68  60  75 W2          N/A
$$

HIZ016-270100-
KAHOOLAWE-

CITY           SKY/WX    TMP DP  RH WIND       PRES   REMARKS
KAHOOLAWE*       N/A     73 N/A N/A SE8G15      N/A
HAKIOAWA*        N/A     78  68  72 MISG      30.35F
HONOKANAIA*      N/A     82  68  61 E12G20    29.94F
KANELOA*         N/A     79  70  73 MISG      29.18
KEALIALALO*    NOT AVBL
LUA MAKIKA*    NOT AVBL
$$

HIZ014>015-270100-
LANAI-

CITY           SKY/WX    TMP DP  RH WIND       PRES   REMARKS
LANAI CITY     FAIR      79  67  66 W6        29.99F
LANAI 1*         N/A     64  57  77 SW3G14      N/A
$$

HIZ017>028-270100-
MAUI-

CITY           SKY/WX    TMP DP  RH WIND       PRES   REMARKS
KAHULUI        PTSUNNY   83  66  56 N9        29.93F
KAPALUA-W MAUI MOSUNNY   81  68  65 W7        29.95
HANA AIRPORT   MOSUNNY   79  70  73 E10       29.95F
HANA*            N/A     79 N/A N/A E9G20       N/A
HALEAKALA SUMM   N/A     50  39  66 E7G18       N/A
MAALAEA BAY*   NOT AVBL
HALEAKALA*     NOT AVBL
KAUPO GAP*       N/A     72  68  88 S5G12       N/A
KULA 1*          N/A     59  54  83 NW7G13      N/A
$$

HIZ023>026-270100-
BIG ISLAND OF HAWAII COAST AND LOWER SLOPES-

CITY           SKY/WX    TMP DP  RH WIND       PRES   REMARKS
KAILUA KONA    SUNNY     84  67  56 W9        29.91F
HILO           MOSUNNY   82  68  62 E21G26    29.94F
HONOKAA*       NOT AVBL
KAWAIHAE MWT*    N/A     81 N/A N/A W8          N/A
KAWAIHAE*        N/A     79 N/A N/A W7          N/A
SOUTH POINT*     N/A     79 N/A N/A E18G24      N/A
UPOLU AIRPORT*   N/A    N/A N/A N/A NE9         N/A
KAMUELA*       MOCLDY    79  57  47 W14       30.02F
HAKALAU*         N/A     59  51  75 S7G14       N/A
KALOKO-HONOKO*   N/A     82  68  61 W12         N/A
PALI 2*          N/A     72  61  68 SE15G23     N/A
KEALAKOMO*       N/A     82  68  61 E14         N/A
KAUPULEHU*       N/A     79  55  44 NW10G17     N/A
KAPAPALA*        N/A     78  63  60 E5G13       N/A
LOWER KAHUKU*    N/A     72  63  73 SE3G14      N/A
PUHE CS*         N/A     84  64  51 W3G9        N/A
PUHO CS*         N/A     82  67  59 W5G12       N/A
PTA KEAMUKU*     N/A     70  54  56 CALM        N/A
WAIKOLOA*        N/A     81  57  44 W10G21      N/A
$$

HIZ027>028-270100-
BIG ISLAND OF HAWAII INTERIOR AND SUMMMITS-

CITY           SKY/WX    TMP DP  RH WIND       PRES   REMARKS
BRADSHAW FIELD SUNNY     68  44  42 S15G26    30.22F
MK VISITOR CEN NOT AVBL
MAUNA KEA*       N/A     43  27  52 W6          N/A
MAUNA LOA*       N/A     45  37  76 MISG        N/A
MAUNA LOA 1*   NOT AVBL
PTA KIPUKA*      N/A     64  52  63 NW7G16      N/A
PTA RANGE 17*    N/A     63  50  63 NW12G18     N/A
PTA WEST*        N/A     66  52  59 NW12G17     N/A
NENE CABIN*      N/A     55  46  71 E8G16       N/A
AHUMOA*          N/A     54  52  94 N5G10       N/A
PTA PORTABLE*  NOT AVBL
PUU MALI*      NOT AVBL
$$

HIC003-270100-
NORTHWEST ISLANDS-

CITY           SKY/WX    TMP DP  RH WIND       PRES   REMARKS
MIDWAY ISLAND  CLOUDY    64  45  48 N7        30.31F
MIDWAY NOS*    NOT AVBL
FRENCH FRIGATE NOT AVBL
$$

PHZ110>124-180-270100-
BUOY REPORTS

STATION/POSITION TIME  TEMP    WIND        PRES    WAVE   SWELL
                       AIR SEA DIR/SP/G            HT/PER HT/DIR
                 (UTC) (F)     (DEG/KT/KT) (MB)    (FT/S) (FT/D)
BUOY 51001       NOT AVBL
BUOY 51101       0000   72 72  180/  2/  4 1014.6R   7/11   7/290
BUOY 51100       0000   74 74  120/ 14     1015.0F
BUOY 51003       0000   77 79   50/  6/  8 1013.9F   7/10   7
BUOY 51004       NOT AVBL
BARBERS PT BUOY  NOT AVBL
WAIMEA BAY BUOY  0000      80                N/A     5/11
KAILUA BAY BUOY  0000      78                N/A     6/11   3/ 70
LANAI BUOY       0000      79                N/A     3/13   2/240
BARBERS PT 2     0000      79                N/A     4/13   3/250
PAUWELA MAUI     0000      76                N/A    10/11   5/ 80
HILO             0000      78                N/A     7/10   3/ 80
KANEOHE BAY BUOY 0000      77                N/A     6/10   2/ 60
HANALEI KAUAI    NOT AVBL
KAHULUI HARBOR   0000   78 77  340/  7/  8 1012.9F
HONOLULU HARBOR  0000   78 77  200/  6/  9 1012.6F
KILO NALU        NOT AVBL
HILO HARBOR      NOT AVBL
MOKUOLOE         0000      76              1012.8F
NAWILIWILI       0000   75 78   50/  9/ 12 1013.6F
WHOTS BUOY       NOT AVBL
BUOY 51028       NOT AVBL
$$

......................KEY........................................
  SKY/WX - SKY CONDITIONS/PRESENT WEATHER
  TMP    - TEMPERATURE IN FAHRENHEIT
  DWPT   - DEWPOINT IN FAHRENHEIT
  RH     - RELATIVE HUMIDITY IN PERCENT
  WIND   - DIRECTION AND SPEED /MPH FOR ISLANDS...KTS FOR BUOYS/
  PRES   - MEAN SEA LEVEL PRESSURE IN INCHES OF HG
  VSB    - VISIBILITY IN MILES
  HX     - HEAT INDEX
  WCI    - WIND CHILL INDEX
  VRB    - VARIABLE WIND DIRECTION
  N/A    - NOT AVAILABLE


USA.gov is the U.S. government's official web portal to all federal, state and local government web resources and services.